P/2015 R2 ( PanSTARRS ) 2024

Japanese version
Home page
Updated on January 6, 2024

---------------------------------------------------------------------

* Profile

* Orbital Elements

Epoch 2024 Nov. 26.0 TT = JDT 2460640.5
T 2024 Dec. 15.73374 TT                                 MPCW
q   2.4549840            (2000.0)            P               Q
n   0.10389947     Peri.  149.90379     +0.75233363     +0.65665732
a   4.4811949      Node   168.57666     -0.64505855     +0.75058071
e   0.4521586      Incl.   15.48260     -0.13376685     +0.07368699
P   9.49
From 24 observations 2015 Sept. 9-18, mean residual 0".5.

* Magnitudes Graph

        m1 = 15.0 + 5 log d + 10.0 log r

---------------------------------------------------------------------

The orbital elements are published on M.P.E.C. 2015-S90.
The magnitudes graphs are made with Comet for Windows.

---------------------------------------------------------------------

Copyright(C) Seiichi Yoshida (comet@aerith.net). All rights reserved.